Location: Ferma
(41.9500°N, 44.5167°E)
Time: 12:44:44
(UTC+00:00)

CORIOLIS - Pass Details

Date: 24 October 2021
Orbit: 819 x 838 km, 98.7° (Epoch: 07 December)

Event Time Altitude Azimuth Distance (km) Brightness Sun altitude
Rises 14:26:57 0° 162° (SSE) 3,339 7.2 -4.5°
Reaches altitude 10° 14:29:17 10° 162° (SSE) 2,409 6.5 -4.9°
Maximum altitude 14:34:37 83° 74° (ENE) 831 4.2 -5.9°
Drops below altitude 10° 14:39:59 10° 348° (NNW) 2,422 6.6 -6.8°
Sets 14:42:20 0° 348° (NNW) 3,359 7.4 -7.3°
